Simultaneous Nadir Overpasses (SNOs) Predictions

Prediction of SNOs between METOP-A and NOAA-19 Satellite Orbit:

Table of predicted SNOs for the next 14.0 days since TLE Epoch: 10/25/2013
Index Date (METOP-A) Time (METOP-A) Lat,Lon (METOP-A) SZA (METOP-A ) Date (NOAA-19) Time (NOAA-19) Lat,Lon (NOAA-19) SZA (NOAA-19 ) Distance(km) Time Diff (sec)
1 10/27/2013 12:15:37 73.66, -10.25 86.51 10/27/2013 12:14:23 73.65, -10.15 86.50 3.72 74
2 10/27/2013 13:06:19 -73.66, 157.06 93.48 10/27/2013 13:05:26 -73.65, 157.09 93.49 1.18 53
3 10/27/2013 13:56:59 73.64, -35.64 86.52 10/27/2013 13:56:27 73.63, -35.63 86.51 0.73 32
4 10/27/2013 14:47:41 -73.63, 131.67 93.48 10/27/2013 14:47:30 -73.63, 131.61 93.48 2.03 11
5 10/27/2013 15:38:21 73.62, -61.03 86.52 10/27/2013 15:38:31 73.62, -61.11 86.52 2.56 10
6 10/27/2013 16:29:04 -73.56, 106.17 93.53 10/27/2013 16:29:33 -73.57, 106.24 93.52 2.43 29
7 10/27/2013 17:19:44 73.55, -86.54 86.47 10/27/2013 17:20:34 73.56, -86.48 86.48 2.15 50
8 10/27/2013 18:10:26 -73.54, 80.78 93.52 10/27/2013 18:11:37 -73.56, 80.76 93.51 1.74 71
9 10/27/2013 19:01:20 72.82,-113.47 85.79 10/27/2013 19:02:25 72.90,-110.50 85.83 97.76 65
10 11/06/2013 13:49:43 74.31, -32.24 90.36 11/06/2013 13:48:37 74.34, -35.32 90.42 92.62 66
11 11/06/2013 14:40:38 -73.68, 133.54 90.26 11/06/2013 14:39:29 -73.69, 133.56 90.25 0.83 69
12 11/06/2013 15:31:17 73.70, -59.09 89.77 11/06/2013 15:30:28 73.70, -59.20 89.77 3.57 49
13 11/06/2013 16:22:00 -73.66, 108.15 90.26 11/06/2013 16:21:33 -73.68, 108.07 90.24 2.88 27
14 11/06/2013 17:12:40 73.63, -84.60 89.72 11/06/2013 17:12:31 73.64, -84.57 89.73 1.16 9
15 11/06/2013 18:03:23 -73.59, 82.64 90.31 11/06/2013 18:03:36 -73.62, 82.70 90.28 3.28 13
16 11/06/2013 18:54:02 73.61,-109.99 89.72 11/06/2013 18:54:35 73.62,-110.06 89.74 3.07 33
17 11/06/2013 19:44:45 -73.57, 57.25 90.31 11/06/2013 19:45:39 -73.55, 57.33 90.33 3.00 54
18 11/06/2013 20:35:24 73.58,-135.38 89.72 11/06/2013 20:36:38 73.56,-135.43 89.70 2.92 74




NCC Satellite Simultaneous Nadir Overpasses
